Regional Weather Roundup
Issued by NWS

Home | Current Version | Previous Version | Text Only | Print | Product List | Glossary Off
Versions: 1 2 3 4 5 6 7 8 9 10 11 12 13 14 15 16 17 18 19 20 21 22 23 24 25 26 27 28 29 30 31 32 33 34 35 36 37 38 39 40 41 42 43 44 45 46 47 48 49 50

610
ASUS45 KTFX 192110
RWRMT
MONTANA REGIONAL WEATHER ROUNDUP
NATIONAL WEATHER SERVICE GREAT FALLS MT
200 PM MST THU JAN 19 2017

NOTE: "FAIR" INDICATES FEW OR NO CLOUDS BELOW 12000 FEET WITH NO
SIGNIFICANT WEATHER AND/OR OBSTRUCTIONS TO VISIBILITY.

MTZ001>007-043-192200-
WEST OF THE DIVIDE

CITY           SKY/WX    TMP DP  RH WIND       PRES   REMARKS
KALISPELL      CLOUDY    36  32  85 NE3       29.51F FOG
MISSOULA       CLOUDY    34  32  92 SE6       29.56S FOG     WCI  29
BUTTE          CLOUDY    37  25  61 VRB3      29.52F
MULLAN PASS    SNOW      31  27  85 NW7       29.51S VSB 1/4 WCI  24
ANACONDA         N/A     43  27  52 S12G17    29.49F
DEER LODGE       N/A     39  30  70 W5        29.52F
EUREKA           N/A     43  32  65 S3        29.51S
HAMILTON         N/A     36  30  80 NE7       29.54R WCI  30
PLAINS           N/A     34  29  82 CALM      29.59F
RONAN            N/A     35  32  89 W1        29.61S
THOMPSON FALLS   N/A     38  35  89 CALM      29.64S
$$

MTZ008-052>055-192200-
SOUTHWEST MONTANA

CITY           SKY/WX    TMP DP  RH WIND       PRES   REMARKS
BOZEMAN        CLOUDY    33  26  75 E6        29.53F WCI  28
DILLON         CLOUDY    44  26  49 E5        29.55F
W YELLOWSTONE  CLOUDY    27  25  93 SW9       29.63F FOG     WCI  17
ENNIS          CLOUDY    34  25  69 S21G28    29.60F WCI  22
TWIN BRIDGES     N/A     33  26  76 S9        29.61F WCI  25
$$

MTZ009-010-012-014-046-048-049-054-192200-
EAST SLOPES AND CENTRAL MONTANA

CITY           SKY/WX    TMP DP  RH WIND       PRES   REMARKS
CUT BANK         N/A     42  28  57 SW20G29   29.41S
GREAT FALLS    CLOUDY    43  29  57 SW17      29.45S
MALMSTROM AFB  CLOUDY    43  31  62 SW13      29.46S
HELENA         MOSUNNY   39  24  55 CALM      29.50F
AUGUSTA          N/A     43  27  53 SW16G22   29.43S
BOWMANS CRNR     N/A     37  31  78 S17       29.43S WCI  27
CHOTEAU          N/A     45  28  53 W6        29.44S
CONRAD           N/A     39  35  85 S3        29.50S
POWER          PTSUNNY   38  30  73 SW12      29.43F WCI  30
RAYNESFORD     PTSUNNY   46  28  49 W3        29.46S
ULM            PTSUNNY   40  30  66 MISG      29.46F
$$

MTZ011-013-016-021-045-047-050-051-192200-
NORTH CENTRAL MONTANA

CITY           SKY/WX    TMP DP  RH WIND       PRES   REMARKS
HAVRE          MOSUNNY   40  33  76 SW10      29.41F
LEWISTOWN      CLOUDY    40  30  67 W3        29.46R
CHINOOK          N/A     45  34  65 W5        29.41S
DENTON         PTSUNNY   42  30  62 W20G30    29.41R
FORT BENTON      N/A     48  30  49 MISG      29.44S
GEYSER         PTSUNNY   44  30  59 W9        29.44S
GRASS RANGE    PTSUNNY   46  29  51 W16       29.41R
JUDITH GAP     PTSUNNY   43  28  54 W7        29.46R
ROY            CLOUDY    47  31  53 MISG      29.42R
STANFORD       PTSUNNY   41  32  69 CALM      29.45S
WINIFRED         N/A     45  31  58 W8        29.43S
$$

MTZ017>020-022>027-061-062-192200-
NORTHEAST MONTANA

CITY           SKY/WX    TMP DP  RH WIND       PRES   REMARKS
GLASGOW        CLOUDY    35  25  66 CALM      29.41F
JORDAN           N/A     43  31  62 W8        29.42S
SIDNEY         CLOUDY    30  24  78 S7        29.43F WCI  23
WOLF POINT     CLOUDY    31  23  72 CALM      29.43F
PLENTYWOOD       N/A     30  25  80 SE5       29.41F
POPLAR           N/A     28  19  69 CALM      29.43F
SCOBEY           N/A     32  21  64 S2        29.43S
$$

MTZ028>42-056>058-192200-
SOUTHCENTRAL AND SOUTHEAST MONTANA

CITY           SKY/WX    TMP DP  RH WIND       PRES   REMARKS
BAKER          CLOUDY    38  24  57 NW3       29.45F
BILLINGS       PTSUNNY   41  26  55 SW7       29.48S
LIVINGSTON     CLOUDY    41  24  51 SW35G44   29.49R
MILES CITY     CLOUDY    29  20  69 S6        29.45F WCI  23
BIG TIMBER     MOSUNNY   43  25  49 W24G31    29.50S
FORSYTH          N/A     36  21  55 CALM      29.45S
HARLOWTON      CLOUDY    43  28  54 NW24      29.46R
LAUREL           N/A     39  23  53 SW7       29.51F
ROUNDUP          N/A     43  25  49 S7        29.42S
$$

REGIONAL REPORTS...DAKOTAS

CITY           SKY/WX    TMP DP  RH WIND       PRES   REMARKS
WILLISTON      CLOUDY    33  22  63 SW6       29.44S WCI  28
MINOT          CLOUDY    35  29  78 NE3       29.43S
DICKINSON      CLOUDY    34  25  69 W12       29.40F WCI  25
BEACH            N/A     37  27  65 SW7       29.46S
CROSBY           N/A     32  27  80 SW15      29.42F WCI  22
TIOGA            N/A     34  30  86 CALM      29.43F
WATFORD CITY     N/A     30  25  80 CALM      29.43F
BISMARCK       CLOUDY    26  20  77 E5        29.47F
GRAND FORKS    CLOUDY    30  26  85 S18       29.55S FOG     WCI  18
FARGO          SUNNY     39  34  82 S10       29.58S
BUFFALO SD       N/A     34  25  69 W8        29.38F WCI  27
RAPID CITY     SUNNY     34  25  69 S3        29.46S
$$

REGIONAL REPORTS...WYOMING/IDAHO/WASHINGTON

CITY           SKY/WX    TMP DP  RH WIND       PRES   REMARKS
GILLETTE       SUNNY     46  24  42 W17       29.45F
SHERIDAN       CLOUDY    42  23  46 CALM      29.45F
BUFFALO WY     CLOUDY    48  17  29 CALM      29.47S
CODY           CLOUDY    26  19  74 CALM      29.51S
YELLOWSTONE LA   N/A     27  22  81 CALM      29.62F
IDAHO FALLS    CLOUDY    31  30  96 SW6       29.67F FOG     WCI  25
SALMON         CLOUDY    28  25  86 N3        29.60F
BOISE          CLOUDY    38  32  79 S7        29.67S
SPOKANE        PTSUNNY   40  33  76 S8        29.56F
$$

REGIONAL REPORTS...ALBERTA

CITY           SKY/WX    TMP DP  RH WIND       PRES   REMARKS
EDMONTON       PTSUNNY   37  25  60 CALM      29.15F
CALGARY        MOSUNNY   48  23  37 W9        29.24R
LETHBRIDGE     PTSUNNY   41  32  70 SW16      29.35R
MEDICINE HAT   PTSUNNY   50  36  57 SW14G24   29.31S
WATERTON GATE    N/A     45  21  39 SW24G39     N/A
CARDSTON         N/A     45  21  39 W13G21      N/A
MILK RIVER       N/A     43  32  65 W16G23      N/A
ONEFOUR          N/A     36  30  80 E8          N/A  WCI  29
$$

REGIONAL REPORTS...SASKATCHEWAN

CITY           SKY/WX    TMP DP  RH WIND       PRES   REMARKS
SWIFT CURRENT  PTSUNNY   45  34  65 S12       29.32F
REGINA         MOSUNNY   36  30  80 SE7       29.38S WCI  30
SASKATOON      CLOUDY    37  32  81 S8        29.30S WCI  31
CYPRESS HILLS    N/A     39  27  60 SW6         N/A
VAL MARIE        N/A     37  30  75 SW5         N/A
ROCKGLEN         N/A     45  34  65 SW5         N/A
ASSINIBOIA       N/A     37  28  70 SW5         N/A
$$




USA.gov is the U.S. government's official web portal to all federal, state and local government web resources and services.